Tracking 19625 objects as of 26-May-2019
HD Live streaming from Space Station
objects crossing your sky now
Watch Starlink satellites crossing your sky!

COSMOS 917 DEB

Track COSMOS 917 DEB now!


NORAD ID: 26964
Int'l Code: 1977-047E
Perigee: 3,332.0 km
Apogee: 36,687.1 km
Inclination: 64.5 °
Period: 710.7 minutes
Semi major axis: 26380 km
RCS: 0.2518 m2 (medium)
Launch date: June 16, 1977
Source: Commonwealth of Independent States (former USSR) (CIS)
Launch site: PLESETSK MISSILE AND SPACE COMPLEX (PKMTR)

Note: This is SATELLITE DEBRIS
aabbcc
Your satellite tracking list
Your tracking list is empty




NASA's NSSDC Master Catalog

Two Line Element Set (TLE):
1 26964U 77047E   19140.07569131 -.00000380  00000-0  00000+0 0  9990
2 26964  64.5121 226.5305 6321898  44.8026 351.5367  2.02617254525070
Source of the keplerian elements: AFSPC